Location: Oberkirch
(48.5323°N, 8.0787°E)
Time: 07:48:45
(UTC+00:00)

Tiros 1 - Pass Details

Date: 16 February 2026
Orbit: 618 x 649 km, 48.4° (Epoch: 12 March)

Event Time Altitude Azimuth Distance (km) Brightness Sun altitude
Rises 07:40:01 0° 195° (SSW) 2,902 10.7 9.2°
Reaches altitude 10° 07:43:14 10° 171° (S) 1,992 10.4 9.7°
Maximum altitude 07:45:45 15° 137° (SE) 1,699 11.2 10.0°
Drops below altitude 10° 07:48:17 10° 104° (ESE) 1,989 11.4 10.4°
Sets 07:51:29 0° 80° (E) 2,894 11.3 10.8°
